Location: *
(45.5667°S, 177.5167°W)
Time: 05:29:59
(UTC+00:00)

Cosmos 2082 Rocket - Pass Details

Date: 29 May 2022
Orbit: 832 x 854 km, 71.0° (Epoch: 24 June)

Event Time Altitude Azimuth Distance (km) Brightness Sun altitude
Rises 05:46:08 0° 334° (NNW) 3,382 6.0 -15.0°
Reaches altitude 10° 05:48:33 10° 333° (NNW) 2,453 5.2 -15.4°
Maximum altitude 05:54:12 84° 245° (WSW) 854 2.2 -16.4°
Enters shadow 05:59:29 12° 155° (SSE) 2,321 4.1 -17.3°
